OPS 4682 DEB, 1399

Orbit data source: Space-Track

OPS 4682 DEB, 1399 is space debris in LEO originally from a launch on Sat, 03 Apr 1965 UTC launched from the Air Force Western Test Range (AFWTR). Debris objects in space refer to the collection of defunct objects orbiting the Earth. Examples of debris include non-operational satellites, rocket bodies, and fragments generated from explosions, collisions, or faulty payload assembly.

Loading next visibility...
Identifier
1399, 1965-027E
Orbit
LEO
Country
Flag of USUS
Related business
Manufacturer
Unknown
Mission
Spacecraft
Bus & Motor
Unknown
Mass
Unknown
Launch date (UTC)
1965-04-03 (60 years ago)
Launch vehicle
Unknown
Launch site
Air Force Western Test Range (AFWTR)
Object type
Payload
Rocket body
Debris
Shape & HBR
Unknown
Radar Cross Section
Small (<0.1 m²)

Expand to show TLE details & history
Last TLE update: 1 day ago

TLE from 1 day ago
0 OPS 4682 DEB
1 01399U 65027E   25260.08172791  .00000777  00000-0  25659-2 0  9992
2 01399  90.2651  18.3469 0007282 282.8637  77.1671 12.99772822597620
Epoch: 2025-09-17T01:57Z
TLE epoch observation values (Epoch: 2025-09-17T01:57:41.291Z)
Latitude
-0.00005°
Longitude
-7.33794°
Altitude
1,264.628 km
Speed
7.224 km/s
True Right ascension
01h 13m 23s
True Declination
0° 00' 00"
Sunlit
Object was in full shadow at epoch
Visualization orbit readout
Latitude
Unknown
Longitude
Unknown
Altitude
Unknown
Speed
Unknown
Apparent Right ascension
Unknown
Apparent Declination
Unknown
Sunlit
N/A
Visualization observer readout
Local Sidereal Time
06:15:52
Azimuth
Unknown
Elevation
Unknown
Doppler factor
Unknown
Orbital elements
Apogee altitude
1,265.666 km
Perigee altitude
1,254.542 km
Semi-major axis
7,638.241 km
Eccentricity
0.00073
Inclination
90.2651°
RAAN
18.3469°
Arg. of periapsis
282.8637°
True anomaly
77.24848°
Mean anomaly
77.1671°
Eccentric anomaly
77.20779°
Mean motion
3.25127 °/min
Orbital period
110.73 mins
BSTAR
0.0025659
Loading maneuver chart data...
Computing Atmospheric mass density...
Loading historical data...
Loading historical data...
Loading historical data...
Loading historical data...
Loading historical data...
Loading historical data...
Loading historical data...

Documentation

Showing up to 5 results
|